sat.trackr.live / text

‹ back to catalog

STARLINK-35867

NORAD 66791 · 2025-278A

PAYLOAD ACTIVE UNKNOWN

§ Identity

Operator
Country
US
Launch date
2025-12-01
Launch site
AFETR
Launch vehicle
Mass (kg)
RCS (m²)

Purposes: comms

External: N2YO · Heavens-Above · Gunter

§ Orbital elements

Epoch: 2026-09-20T22:17:52.913760Z

Period
94.27 min
Inclination
42.9995°
Eccentricity
0.0001697
Mean motion
15.27590726 rev/d
Perigee alt
481.9 km
Apogee alt
484.2 km
Semi-major
6,861.2 km
B*
4.4310e-4
RAAN
92.1772°
Arg perigee
52.3296°
Mean anomaly
307.7709°
Rev number
4,506

§ Raw data

STARLINK-358671 66791U 25278A   26263.92908465  .00011955  00000+0  44310-3 0  99902 66791  42.9995  92.1772 0001697  52.3296 307.7709 15.27590726 45069

JSON: /api/v1/satellites/66791 · /tle

For live sub-satellite position, see the globe view (requires WebGL).

§ Visibility from observer

Set your observer location to see the next 7 days of passes ≥ 10°. The values pass through the URL so the page stays shareable.

No JS? Fill the form by hand. The geolocation button needs JavaScript.